Home   Weather   Taiyuan   Past weeks

Flag for China Past Weather in Taiyuan, Shanxi, China — Yesterday and Last 2 Weeks

Now
73 °F

Passing clouds.


Feels Like: 74 °F
Forecast: 47 / 64 °F
Wind: 8 mph from North

Location: Taiyuan Airport

Current Time: Apr 24, 2017 at 5:39:44 pm

Latest Report: Apr 24, 2017 at 5:00 pm


Visibility: N/A

Pressure: 29.89 "Hg (27.29 "Hg at 790m altitude)

Humidity: 10%

Dew Point: 14 °F

Location of TaiyuanLocation

Past Weather in Taiyuan — Graph

°F

Taiyuan Temperature Yesterday

Maximum temperature yesterday: 81 °F (at 3:00 pm)
Minimum temperature yesterday: 43 °F (at 6:00 am)
Average temperature yesterday: 63 °F

High & Low Weather Summary for the Past Weeks

 TemperatureHumidityPressure
High81 °F (Apr 23, 3:00 pm)100% (Apr 11, 2:00 am)30.15 "Hg (Apr 11, 2:00 am)
Low36 °F (Apr 12, 5:30 am)6% (Apr 23, 4:30 pm)29.53 "Hg (Apr 17, 3:30 pm)
Average56 °F48%29.91 "Hg
* Reported Apr 9 4:00 pm — Apr 24 4:00 pm, Taiyuan, Weather by CustomWeather, © 2017

Note: Actual official high and low records may vary slightly from our data, if they occured in-between our weather recording intervals... More about our weather records

Advertising

Taiyuan Weather History for the Previous 24 Hours

Scroll right to see more
 ConditionsComfort  
Time TempWeatherWind HumidityBarometerVisibility
4:00 pm
Mon, Apr 24
75 °FSunny.3 mph11%29.86 "Hg10 mi
3:30 pm75 °FPassing clouds.8 mph9%29.86 "HgN/A
3:00 pm75 °FPassing clouds.6 mph9%29.86 "HgN/A
2:30 pm75 °FPassing clouds.6 mph8%29.89 "HgN/A
2:00 pm73 °FSunny.1 mph10%29.89 "Hg10 mi
1:30 pm73 °FPassing clouds.8 mph9%29.89 "HgN/A
1:00 pm75 °FPassing clouds.8 mph10%29.89 "HgN/A
12:30 pm73 °FPassing clouds.3 mph9%29.92 "HgN/A
12:00 pm72 °FPassing clouds.6 mph10%29.92 "HgN/A
11:30 am72 °FPassing clouds.10 mph9%29.95 "HgN/A
10:30 am70 °FSunny.15 mph10%29.95 "Hg10 mi
10:00 am68 °FPassing clouds.15 mph10%29.98 "HgN/A
9:30 am66 °FSunny.15 mph13%29.95 "Hg10 mi
9:00 am64 °FSunny.17 mph15%29.95 "Hg10 mi
8:30 am63 °FSunny.15 mph17%29.95 "Hg10 mi
8:00 am63 °FSunny.13 mph17%29.95 "Hg10 mi
7:30 am61 °FPassing clouds.6 mph27%29.92 "HgN/A
7:00 am55 °FSunny.3 mph59%29.92 "Hg10 mi
6:30 am52 °FSunny.1 mph62%29.89 "Hg10 mi
6:00 am54 °FSunny.1 mph58%29.89 "Hg10 mi
5:30 am55 °FClear.1 mph55%29.86 "Hg10 mi
4:30 am54 °FClear.1 mph58%29.83 "Hg10 mi
4:00 am54 °FClear.1 mph58%29.83 "Hg10 mi
3:30 am55 °FClear.3 mph51%29.83 "Hg10 mi
3:00 am55 °FClear.1 mph51%29.83 "Hg10 mi
2:30 am57 °FPassing clouds.3 mph48%29.80 "HgN/A
2:00 am57 °FPassing clouds.3 mph48%29.80 "HgN/A
1:30 am59 °FPassing clouds.10 mph45%29.80 "HgN/A
1:00 am59 °FClear.10 mph42%29.80 "Hg10 mi
12:30 am59 °FClear.10 mph45%29.80 "Hg10 mi
12:00 am59 °FClear.13 mph42%29.77 "Hg10 mi
11:30 pm
Sun, Apr 23
61 °FClear.15 mph39%29.77 "Hg10 mi
11:00 pm61 °FClear.13 mph39%29.77 "Hg10 mi
10:30 pm63 °FClear.15 mph34%29.77 "Hg10 mi
10:00 pm63 °FClear.15 mph34%29.77 "Hg10 mi
9:00 pm64 °FClear.15 mph32%29.74 "Hg10 mi
8:30 pm64 °FClear.13 mph32%29.74 "Hg10 mi
8:00 pm66 °FClear.13 mph28%29.71 "Hg10 mi
7:30 pm73 °FPassing clouds.3 mph10%29.71 "HgN/A
7:00 pm75 °FSunny.3 mph9%29.68 "Hg10 mi
6:30 pm75 °FSunny.8 mph10%29.68 "Hg10 mi
6:00 pm79 °FPassing clouds.10 mph7%29.68 "HgN/A
5:30 pm81 °FPassing clouds.13 mph7%29.68 "HgN/A
5:00 pm81 °FPassing clouds.13 mph6%29.68 "HgN/A
Weather by CustomWeather, © 2017

See weather overviewHow to use our weather pages